When you browse on this site, cookies collect data to enhance your experience and personalize the content and advertising you see.
Visit our Privacy Policy to learn more. By continuing to use the site, you agree to this use of cookies and data.
  • în România
  • Lista ţărilor
  • Pe 7 zile
  • Temperatura apei
  • Meteo pe hartă
  • Widget-uri
  • user-avatar
    Intrare

    Meteo pe oră la Mazyr

    Astăzi, 29 Ianuarie, Miercuri

    Timp Temperatura Precipitaţii Vânt Presiune Umiditate
    00:00 -2°C° 0 mm 4 m/s 738 mmHg 90%
    01:00 -2°C° 0 mm 4 m/s 738 mmHg 90%
    02:00 -1°C° 0 mm 4 m/s 737 mmHg 92%
    03:00 -2°C° 0 mm 4 m/s 737 mmHg 93%
    04:00 -2°C° 0 mm 4 m/s 736 mmHg 93%
    05:00 -2°C° 0 mm 4 m/s 736 mmHg 94%
    06:00 -2°C° 0 mm 4 m/s 735 mmHg 94%
    07:00 -2°C° 0 mm 4 m/s 735 mmHg 94%
    08:00 -2°C° 0 mm 4 m/s 735 mmHg 92%
    09:00 -2°C° 0 mm 4 m/s 735 mmHg 90%
    10:00 -1°C° 0 mm 4 m/s 734 mmHg 88%
    11:00 -1°C° 0 mm 5 m/s 734 mmHg 87%
    12:00 -1°C° 0.3 mm 4 m/s 734 mmHg 90%
    13:00 -1°C° 0.3 mm 4 m/s 734 mmHg 94%
    14:00 -1°C° 0 mm 3 m/s 734 mmHg 96%
    15:00 -1°C° 1 mm 3 m/s 734 mmHg 97%
    16:00 -1°C° 1 mm 3 m/s 734 mmHg 97%
    17:00 -1°C° 1 mm 3 m/s 734 mmHg 98%
    18:00 -1°C° 0.7 mm 3 m/s 734 mmHg 97%
    19:00 -2°C° 0.7 mm 4 m/s 734 mmHg 96%
    20:00 -2°C° 0.7 mm 4 m/s 734 mmHg 95%
    21:00 -2°C° 0.2 mm 4 m/s 734 mmHg 93%
    22:00 -2°C° 0.2 mm 4 m/s 734 mmHg 91%
    23:00 -2°C° 0.2 mm 4 m/s 733 mmHg 89%

    Mâine, 30 Ianuarie, Joi

    Timp Temperatura Precipitaţii Vânt Presiune Umiditate
    00:00 -2°C° 0 mm 4 m/s 734 mmHg 90%
    01:00 -3°C° 0 mm 4 m/s 734 mmHg 91%
    02:00 -3°C° 0 mm 4 m/s 734 mmHg 92%
    03:00 -4°C° 0 mm 5 m/s 734 mmHg 91%
    04:00 -4°C° 0 mm 5 m/s 734 mmHg 90%
    05:00 -2°C° 0 mm 5 m/s 734 mmHg 89%
    06:00 -2°C° 0 mm 5 m/s 734 mmHg 89%
    07:00 -2°C° 0 mm 5 m/s 735 mmHg 89%
    08:00 -2°C° 0 mm 5 m/s 735 mmHg 89%
    09:00 -3°C° 0.1 mm 6 m/s 735 mmHg 90%
    10:00 -3°C° 0.1 mm 6 m/s 735 mmHg 91%
    11:00 -2°C° 0.1 mm 6 m/s 736 mmHg 92%
    12:00 -2°C° 0.1 mm 7 m/s 736 mmHg 92%
    13:00 -2°C° 0.1 mm 7 m/s 736 mmHg 91%
    14:00 -2°C° 0.1 mm 7 m/s 737 mmHg 90%
    15:00 -2°C° 0 mm 6 m/s 737 mmHg 90%
    16:00 -2°C° 0 mm 6 m/s 737 mmHg 90%
    17:00 -2°C° 0 mm 6 m/s 738 mmHg 90%
    18:00 -2°C° 0 mm 6 m/s 738 mmHg 91%
    19:00 -1°C° 0 mm 5 m/s 738 mmHg 92%
    20:00 -1°C° 0 mm 5 m/s 739 mmHg 93%
    21:00 -1°C° 0.1 mm 5 m/s 739 mmHg 94%
    22:00 -1°C° 0.1 mm 5 m/s 739 mmHg 94%
    23:00 -1°C° 0.1 mm 5 m/s 739 mmHg 95%

    Poimâine, 31 Ianuarie, Vineri

    Timp Temperatura Precipitaţii Vânt Presiune Umiditate
    00:00 -2°C° 0 mm 4 m/s 739 mmHg 93%
    01:00 -2°C° 0 mm 4 m/s 739 mmHg 92%
    02:00 -2°C° 0 mm 3 m/s 739 mmHg 91%
    03:00 -2°C° 0 mm 3 m/s 739 mmHg 92%
    04:00 -2°C° 0 mm 3 m/s 738 mmHg 93%
    05:00 -3°C° 0 mm 4 m/s 738 mmHg 94%
    06:00 -2°C° 0.3 mm 4 m/s 737 mmHg 95%
    07:00 -2°C° 0.3 mm 4 m/s 737 mmHg 96%
    08:00 -1°C° 0.3 mm 4 m/s 737 mmHg 97%
    09:00 -1°C° 0.4 mm 4 m/s 736 mmHg 97%
    10:00 0°C° 0.4 mm 4 m/s 736 mmHg 98%
    11:00 0°C° 0.4 mm 4 m/s 736 mmHg 98%
    12:00 0°C° 0.2 mm 4 m/s 735 mmHg 97%
    13:00 0°C° 0.2 mm 4 m/s 735 mmHg 97%
    14:00 0°C° 0.2 mm 4 m/s 735 mmHg 96%
    15:00 +1°C° 0 mm 3 m/s 735 mmHg 97%
    16:00 +1°C° 0 mm 3 m/s 735 mmHg 97%
    17:00 +1°C° 0 mm 3 m/s 735 mmHg 97%
    18:00 +1°C° 0 mm 3 m/s 735 mmHg 98%
    19:00 +1°C° 0 mm 2 m/s 735 mmHg 98%
    20:00 +1°C° 0 mm 2 m/s 736 mmHg 98%
    21:00 +1°C° 0 mm 2 m/s 736 mmHg 98%
    22:00 +1°C° 0 mm 2 m/s 736 mmHg 98%
    23:00 +1°C° 0 mm 2 m/s 737 mmHg 98%

    1 Februarie, Sâmbătă

    Timp Temperatura Precipitaţii Vânt Presiune Umiditate
    00:00 +1°C° 0 mm 2 m/s 737 mmHg 97%
    01:00 +1°C° 0 mm 2 m/s 738 mmHg 97%
    02:00 +1°C° 0 mm 2 m/s 738 mmHg 97%
    03:00 +1°C° 0 mm 2 m/s 738 mmHg 97%
    04:00 +1°C° 0 mm 2 m/s 738 mmHg 97%
    05:00 +1°C° 0 mm 2 m/s 738 mmHg 97%
    06:00 +1°C° 0 mm 2 m/s 738 mmHg 97%
    07:00 +1°C° 0 mm 2 m/s 739 mmHg 97%
    08:00 +1°C° 0 mm 2 m/s 739 mmHg 97%
    09:00 +1°C° 0 mm 2 m/s 739 mmHg 97%
    10:00 +2°C° 0 mm 2 m/s 739 mmHg 97%
    11:00 +2°C° 0 mm 2 m/s 739 mmHg 97%
    12:00 +2°C° 0 mm 3 m/s 739 mmHg 96%
    13:00 +3°C° 0 mm 3 m/s 739 mmHg 95%
    14:00 +3°C° 0 mm 3 m/s 739 mmHg 94%
    15:00 +3°C° 0.3 mm 3 m/s 739 mmHg 95%
    16:00 +3°C° 0.3 mm 4 m/s 738 mmHg 96%
    17:00 +3°C° 0.3 mm 4 m/s 738 mmHg 96%
    18:00 +3°C° 0.6 mm 4 m/s 738 mmHg 96%
    19:00 +4°C° 0.6 mm 4 m/s 738 mmHg 96%
    20:00 +4°C° 0.6 mm 4 m/s 737 mmHg 96%
    21:00 +4°C° 0.1 mm 4 m/s 737 mmHg 94%
    22:00 +4°C° 0.1 mm 4 m/s 737 mmHg 93%
    23:00 +5°C° 0.1 mm 4 m/s 736 mmHg 91%

    2 Februarie, Duminică

    Timp Temperatura Precipitaţii Vânt Presiune Umiditate
    00:00 +4°C° 0.1 mm 4 m/s 736 mmHg 92%
    01:00 +4°C° 0.1 mm 4 m/s 735 mmHg 92%
    02:00 +4°C° 0.1 mm 4 m/s 735 mmHg 92%
    03:00 +4°C° 0.1 mm 4 m/s 734 mmHg 92%
    04:00 +4°C° 0.1 mm 4 m/s 734 mmHg 92%
    05:00 +4°C° 0.1 mm 4 m/s 733 mmHg 91%
    06:00 +3°C° 0.5 mm 5 m/s 732 mmHg 92%
    07:00 +5°C° 0.5 mm 5 m/s 732 mmHg 93%
    08:00 +5°C° 0.5 mm 5 m/s 731 mmHg 94%
    09:00 +6°C° 0.1 mm 5 m/s 731 mmHg 92%
    10:00 +5°C° 0.1 mm 6 m/s 731 mmHg 91%
    11:00 +7°C° 0.1 mm 6 m/s 731 mmHg 89%
    12:00 +7°C° 0.5 mm 5 m/s 731 mmHg 90%
    13:00 +6°C° 0.5 mm 5 m/s 731 mmHg 91%
    14:00 +6°C° 0.5 mm 5 m/s 732 mmHg 92%
    15:00 +6°C° 1.2 mm 5 m/s 732 mmHg 89%
    16:00 +4°C° 1.2 mm 6 m/s 733 mmHg 85%
    17:00 +3°C° 1.2 mm 6 m/s 733 mmHg 82%
    18:00 +3°C° 0 mm 6 m/s 734 mmHg 81%
    19:00 +2°C° 0 mm 6 m/s 734 mmHg 81%
    20:00 +2°C° 0 mm 5 m/s 735 mmHg 80%
    21:00 +2°C° 0 mm 5 m/s 735 mmHg 81%
    22:00 +2°C° 0 mm 5 m/s 735 mmHg 82%
    23:00 +2°C° 0 mm 5 m/s 735 mmHg 83%

    3 Februarie, Luni

    Timp Temperatura Precipitaţii Vânt Presiune Umiditate
    00:00 +2°C° 0 mm 5 m/s 735 mmHg 85%
    01:00 +2°C° 0 mm 5 m/s 735 mmHg 87%
    02:00 +2°C° 0 mm 5 m/s 735 mmHg 89%
    03:00 +2°C° 0.1 mm 6 m/s 734 mmHg 87%
    04:00 +1°C° 0.1 mm 6 m/s 734 mmHg 85%
    05:00 0°C° 0.1 mm 7 m/s 734 mmHg 83%
    06:00 +1°C° 0 mm 6 m/s 734 mmHg 85%
    07:00 -1°C° 0 mm 6 m/s 734 mmHg 88%
    08:00 -1°C° 0 mm 6 m/s 734 mmHg 90%
    09:00 -1°C° 0.1 mm 6 m/s 735 mmHg 90%
    10:00 0°C° 0.1 mm 5 m/s 735 mmHg 91%
    11:00 +1°C° 0.1 mm 5 m/s 736 mmHg 91%
    12:00 +1°C° 0 mm 5 m/s 736 mmHg 82%
    13:00 +2°C° 0 mm 5 m/s 736 mmHg 72%
    14:00 +3°C° 0 mm 5 m/s 737 mmHg 62%
    15:00 +2°C° 0 mm 5 m/s 737 mmHg 66%
    16:00 +1°C° 0 mm 4 m/s 737 mmHg 70%
    17:00 0°C° 0 mm 4 m/s 738 mmHg 74%
    18:00 0°C° 0 mm 4 m/s 738 mmHg 73%
    19:00 0°C° 0 mm 5 m/s 738 mmHg 72%
    20:00 -1°C° 0 mm 6 m/s 739 mmHg 70%
    21:00 0°C° 0 mm 5 m/s 739 mmHg 72%
    22:00 0°C° 0 mm 5 m/s 739 mmHg 73%
    23:00 -1°C° 0 mm 4 m/s 739 mmHg 74%
    Arată mai mult